ANZ242 NZAA-NZQN

Flight info

Callsign ANZ242
Flight time 1h 28m
Altitude 34000
Route KAPAI Y320 DOVOT
Aircraft A320/M-SDE3FGHIRWY/LB1

Departure

Time 2026-05-07 19:55
Airport Auckland International Airport (NZAA)

Arrival

Time 2026-05-07 21:23
Airport Queenstown Airport (NZQN)
Time Latitude Longitude Altitude Speed Heading
2026-05-07 19:37 -37.00681 174.79182 25 ft 0 kts 313°
2026-05-07 19:47 -37.00687 174.79191 25 ft 4 kts 322°
2026-05-07 19:47 -37.00710 174.79204 24 ft 3 kts 341°
2026-05-07 19:47 -37.00731 174.79212 29 ft 4 kts 344°
2026-05-07 19:48 -37.00754 174.79223 27 ft 4 kts 304°
2026-05-07 19:48 -37.00757 174.79228 27 ft 1 kts 251°
2026-05-07 19:50 -37.00758 174.79225 26 ft 2 kts 252°
2026-05-07 19:50 -37.00768 174.79186 30 ft 7 kts 252°
2026-05-07 19:50 -37.00788 174.79107 27 ft 12 kts 252°
2026-05-07 19:50 -37.00821 174.78992 28 ft 16 kts 250°
2026-05-07 19:51 -37.00860 174.78856 27 ft 17 kts 251°
2026-05-07 19:51 -37.00900 174.78707 29 ft 19 kts 250°
2026-05-07 19:51 -37.00946 174.78541 26 ft 21 kts 252°
2026-05-07 19:51 -37.00994 174.78400 26 ft 14 kts 221°
2026-05-07 19:52 -37.01083 174.78349 29 ft 15 kts 223°
2026-05-07 19:52 -37.01120 174.78230 27 ft 15 kts 251°
2026-05-07 19:52 -37.01158 174.78096 28 ft 17 kts 251°
2026-05-07 19:52 -37.01198 174.77946 29 ft 19 kts 251°
2026-05-07 19:53 -37.01246 174.77783 27 ft 21 kts 250°
2026-05-07 19:53 -37.01295 174.77603 26 ft 23 kts 251°
2026-05-07 19:53 -37.01348 174.77408 27 ft 25 kts 252°
2026-05-07 19:53 -37.01400 174.77217 28 ft 14 kts 251°
2026-05-07 19:54 -37.01449 174.77113 28 ft 15 kts 203°
2026-05-07 19:54 -37.01553 174.77085 30 ft 16 kts 191°
2026-05-07 19:54 -37.01619 174.77136 28 ft 9 kts 79°
2026-05-07 19:54 -37.01595 174.77215 28 ft 12 kts 71°
2026-05-07 19:55 -37.01512 174.77515 30 ft 68 kts 70°
2026-05-07 19:55 -37.01293 174.78311 26 ft 123 kts 71°
2026-05-07 19:55 -37.00970 174.79484 119 ft 154 kts 68°
2026-05-07 19:55 -37.00630 174.80730 660 ft 152 kts 69°
2026-05-07 19:56 -37.00285 174.81984 1233 ft 151 kts 64°
2026-05-07 19:56 -36.99949 174.83206 1866 ft 149 kts 63°
2026-05-07 19:56 -36.99589 174.84483 2269 ft 163 kts 64°
2026-05-07 19:56 -36.99192 174.85884 2648 ft 179 kts 63°
2026-05-07 19:57 -36.98758 174.87415 2993 ft 196 kts 63°
2026-05-07 19:57 -36.98286 174.89090 3453 ft 209 kts 65°
2026-05-07 19:57 -36.98127 174.90917 4196 ft 221 kts 99°
2026-05-07 19:57 -36.98972 174.92564 4937 ft 236 kts 139°
2026-05-07 19:58 -37.00442 174.93563 5573 ft 246 kts 157°
2026-05-07 19:58 -37.02131 174.93887 6250 ft 249 kts 191°
2026-05-07 19:58 -37.03228 174.93472 6699 ft 249 kts 208°
2026-05-07 19:58 -37.04627 174.92218 7340 ft 247 kts 232°
2026-05-07 19:59 -37.05521 174.90422 7990 ft 244 kts 253°
2026-05-07 19:59 -37.06140 174.88376 8458 ft 259 kts 255°
2026-05-07 19:59 -37.06747 174.86177 8909 ft 276 kts 256°
2026-05-07 19:59 -37.07376 174.83826 9403 ft 290 kts 255°
2026-05-07 20:00 -37.08024 174.81406 10108 ft 296 kts 255°
2026-05-07 20:00 -37.08697 174.78912 10549 ft 310 kts 255°
2026-05-07 20:00 -37.09413 174.76284 10887 ft 327 kts 255°
2026-05-07 20:00 -37.10492 174.73686 11213 ft 350 kts 232°
2026-05-07 20:01 -37.12441 174.71741 11557 ft 370 kts 211°
2026-05-07 20:01 -37.14821 174.70475 12067 ft 381 kts 200°
2026-05-07 20:01 -37.17384 174.69556 12700 ft 386 kts 197°
2026-05-07 20:01 -37.19997 174.68717 13341 ft 389 kts 197°
2026-05-07 20:02 -37.22617 174.67796 13973 ft 392 kts 199°
2026-05-07 20:02 -37.25219 174.66737 14541 ft 394 kts 202°
2026-05-07 20:02 -37.27803 174.65552 15105 ft 396 kts 204°
2026-05-07 20:02 -37.30378 174.64283 15664 ft 398 kts 205°
2026-05-07 20:03 -37.32956 174.62975 16219 ft 401 kts 206°
2026-05-07 20:03 -37.35554 174.61651 16778 ft 404 kts 206°
2026-05-07 20:03 -37.38180 174.60324 17345 ft 407 kts 206°
2026-05-07 20:03 -37.40821 174.59007 17926 ft 410 kts 205°
2026-05-07 20:04 -37.43490 174.57691 18492 ft 413 kts 205°
2026-05-07 20:04 -37.46146 174.56394 19010 ft 416 kts 205°
2026-05-07 20:04 -37.48860 174.55071 19579 ft 418 kts 205°
2026-05-07 20:04 -37.51585 174.53738 20152 ft 419 kts 205°
2026-05-07 20:05 -37.54312 174.52400 20715 ft 421 kts 206°
2026-05-07 20:05 -37.57036 174.51008 21238 ft 422 kts 207°
2026-05-07 20:05 -37.59741 174.49555 21752 ft 423 kts 208°
2026-05-07 20:05 -37.62444 174.48064 22224 ft 425 kts 208°
2026-05-07 20:06 -37.65149 174.46558 22688 ft 426 kts 208°
2026-05-07 20:06 -37.67837 174.45068 23147 ft 428 kts 208°
2026-05-07 20:06 -37.70607 174.43545 23596 ft 430 kts 208°
2026-05-07 20:06 -37.73356 174.42040 23972 ft 432 kts 208°
2026-05-07 20:07 -37.76124 174.40530 24316 ft 434 kts 208°
2026-05-07 20:07 -37.78876 174.39036 24644 ft 436 kts 208°
2026-05-07 20:07 -37.81679 174.37513 24974 ft 438 kts 208°
2026-05-07 20:07 -37.84488 174.35981 25294 ft 441 kts 209°
2026-05-07 20:08 -37.87314 174.34436 25606 ft 443 kts 209°
2026-05-07 20:08 -37.90157 174.32882 25925 ft 445 kts 209°
2026-05-07 20:08 -37.92969 174.31343 26239 ft 447 kts 209°
2026-05-07 20:08 -37.95829 174.29778 26558 ft 449 kts 210°
2026-05-07 20:09 -37.98702 174.28201 26872 ft 451 kts 210°
2026-05-07 20:09 -38.01585 174.26613 27184 ft 453 kts 210°
2026-05-07 20:09 -38.04485 174.25019 27491 ft 455 kts 210°
2026-05-07 20:10 -38.10328 174.21810 28084 ft 459 kts 210°
2026-05-07 20:10 -38.13266 174.20190 28373 ft 461 kts 210°
2026-05-07 20:10 -38.16213 174.18564 28683 ft 463 kts 210°
2026-05-07 20:10 -38.19169 174.16933 29100 ft 462 kts 210°
2026-05-07 20:11 -38.22113 174.15307 29531 ft 460 kts 210°
2026-05-07 20:11 -38.25049 174.13683 29956 ft 460 kts 210°
2026-05-07 20:11 -38.27984 174.12061 30341 ft 459 kts 210°
2026-05-07 20:11 -38.30910 174.10440 30694 ft 458 kts 210°
2026-05-07 20:12 -38.33835 174.08819 31042 ft 458 kts 210°
2026-05-07 20:12 -38.36746 174.07202 31389 ft 457 kts 210°
2026-05-07 20:12 -38.39664 174.05579 31737 ft 456 kts 210°
2026-05-07 20:12 -38.42531 174.03985 32090 ft 456 kts 210°
2026-05-07 20:13 -38.45441 174.02367 32446 ft 455 kts 210°
2026-05-07 20:13 -38.48344 174.00749 32807 ft 455 kts 210°
2026-05-07 20:13 -38.51240 173.99135 33161 ft 454 kts 210°
2026-05-07 20:13 -38.54142 173.97518 33510 ft 454 kts 210°
2026-05-07 20:14 -38.57036 173.95903 33871 ft 453 kts 210°
2026-05-07 20:14 -38.59928 173.94285 34031 ft 455 kts 210°
2026-05-07 20:14 -38.62846 173.92648 34053 ft 460 kts 210°
2026-05-07 20:15 -38.68729 173.89352 34049 ft 461 kts 210°
2026-05-07 20:15 -38.74610 173.86051 34044 ft 462 kts 210°
2026-05-07 20:16 -38.80457 173.82768 34044 ft 462 kts 210°
2026-05-07 20:16 -38.86358 173.79454 34041 ft 462 kts 210°
2026-05-07 20:17 -38.92249 173.76127 34043 ft 462 kts 210°
2026-05-07 20:17 -38.97976 173.72891 34042 ft 463 kts 210°
2026-05-07 20:18 -39.03826 173.69532 34039 ft 460 kts 213°
2026-05-07 20:18 -39.09200 173.65186 34039 ft 455 kts 219°
2026-05-07 20:19 -39.14505 173.60700 34028 ft 456 kts 219°
2026-05-07 20:19 -39.19816 173.56213 34029 ft 456 kts 219°
2026-05-07 20:20 -39.25093 173.51739 34024 ft 456 kts 219°
2026-05-07 20:20 -39.30401 173.47224 34012 ft 457 kts 219°
2026-05-07 20:21 -39.35711 173.42712 34007 ft 456 kts 219°
2026-05-07 20:21 -39.41014 173.38199 34002 ft 456 kts 219°
2026-05-07 20:22 -39.46319 173.33662 33992 ft 457 kts 219°
2026-05-07 20:22 -39.51628 173.29121 33992 ft 457 kts 219°
2026-05-07 20:23 -39.56901 173.24608 33986 ft 457 kts 219°
2026-05-07 20:23 -39.62206 173.20044 33988 ft 457 kts 219°
2026-05-07 20:24 -39.67504 173.15476 33984 ft 457 kts 219°
2026-05-07 20:24 -39.72816 173.10900 33981 ft 458 kts 219°
2026-05-07 20:25 -39.78139 173.06328 33984 ft 458 kts 219°
2026-05-07 20:25 -39.83452 173.01731 33982 ft 458 kts 219°
2026-05-07 20:26 -39.88725 172.97143 33975 ft 459 kts 219°
2026-05-07 20:26 -39.94033 172.92526 33975 ft 459 kts 219°
2026-05-07 20:27 -39.99350 172.87903 33967 ft 459 kts 219°
2026-05-07 20:27 -40.04659 172.83280 33963 ft 459 kts 219°
2026-05-07 20:28 -40.09970 172.78646 33958 ft 459 kts 219°
2026-05-07 20:28 -40.15245 172.74029 33945 ft 459 kts 219°
2026-05-07 20:29 -40.20561 172.69365 33938 ft 460 kts 219°
2026-05-07 20:29 -40.25881 172.64704 33944 ft 460 kts 219°
2026-05-07 20:30 -40.31195 172.60020 33946 ft 461 kts 219°
2026-05-07 20:30 -40.36516 172.55328 33940 ft 461 kts 219°
2026-05-07 20:31 -40.41805 172.50656 33940 ft 461 kts 220°
2026-05-07 20:31 -40.47128 172.45937 33927 ft 461 kts 220°
2026-05-07 20:32 -40.52449 172.41223 33916 ft 462 kts 220°
2026-05-07 20:32 -40.57794 172.36483 33920 ft 463 kts 220°
2026-05-07 20:33 -40.63127 172.31733 33930 ft 463 kts 220°
2026-05-07 20:33 -40.68024 172.27365 33921 ft 463 kts 220°
2026-05-07 20:34 -40.73358 172.22595 33926 ft 463 kts 220°
2026-05-07 20:34 -40.78658 172.17837 33919 ft 462 kts 220°
2026-05-07 20:35 -40.83981 172.13056 33914 ft 462 kts 220°
2026-05-07 20:35 -40.89301 172.08275 33909 ft 462 kts 220°
2026-05-07 20:36 -40.94622 172.03495 33901 ft 463 kts 220°
2026-05-07 20:36 -40.99939 171.98694 33903 ft 463 kts 220°
2026-05-07 20:37 -41.05277 171.93866 33895 ft 464 kts 220°
2026-05-07 20:37 -41.10611 171.89030 33882 ft 464 kts 220°
2026-05-07 20:38 -41.15948 171.84187 33878 ft 464 kts 220°
2026-05-07 20:38 -41.21253 171.79359 33869 ft 465 kts 220°
2026-05-07 20:39 -41.26586 171.74483 33864 ft 465 kts 220°
2026-05-07 20:39 -41.31918 171.69603 33855 ft 465 kts 220°
2026-05-07 20:40 -41.37259 171.64721 33847 ft 466 kts 220°
2026-05-07 20:40 -41.42601 171.59831 33850 ft 466 kts 221°
2026-05-07 20:41 -41.47940 171.54923 33844 ft 466 kts 221°
2026-05-07 20:41 -41.53285 171.50003 33835 ft 467 kts 221°
2026-05-07 20:42 -41.58616 171.45082 33828 ft 468 kts 221°
2026-05-07 20:42 -41.63977 171.40124 33822 ft 468 kts 221°
2026-05-07 20:43 -41.69345 171.35140 33826 ft 469 kts 221°
2026-05-07 20:43 -41.74685 171.30178 33828 ft 470 kts 221°
2026-05-07 20:44 -41.80087 171.25155 33814 ft 472 kts 221°
2026-05-07 20:44 -41.84579 171.20972 33819 ft 472 kts 221°
2026-05-07 20:45 -41.90855 171.15110 33810 ft 473 kts 221°
2026-05-07 20:45 -41.95376 171.10860 33817 ft 473 kts 222°
2026-05-07 20:46 -42.00756 171.05783 33813 ft 474 kts 222°
2026-05-07 20:46 -42.06170 171.00685 33800 ft 475 kts 222°
2026-05-07 20:47 -42.11583 170.95574 33796 ft 476 kts 222°
2026-05-07 20:47 -42.17002 170.90435 33794 ft 476 kts 222°
2026-05-07 20:48 -42.22424 170.85287 33793 ft 477 kts 222°
2026-05-07 20:48 -42.27827 170.80160 33792 ft 477 kts 222°
2026-05-07 20:49 -42.33264 170.74970 33795 ft 478 kts 223°
2026-05-07 20:49 -42.38704 170.69775 33788 ft 479 kts 223°
2026-05-07 20:50 -42.44151 170.64573 33796 ft 479 kts 223°
2026-05-07 20:50 -42.49598 170.59344 33802 ft 479 kts 223°
2026-05-07 20:51 -42.55031 170.54115 33791 ft 479 kts 223°
2026-05-07 20:51 -42.60469 170.48857 33800 ft 479 kts 223°
2026-05-07 20:52 -42.65869 170.43652 33795 ft 479 kts 223°
2026-05-07 20:52 -42.71301 170.38416 33801 ft 478 kts 223°
2026-05-07 20:53 -42.76718 170.33150 33797 ft 478 kts 224°
2026-05-07 20:53 -42.82124 170.27876 33802 ft 477 kts 224°
2026-05-07 20:54 -42.87527 170.22606 33797 ft 478 kts 224°
2026-05-07 20:54 -42.92934 170.17339 33800 ft 478 kts 223°
2026-05-07 20:55 -42.98306 170.12091 33803 ft 478 kts 224°
2026-05-07 20:55 -43.03707 170.06796 33803 ft 478 kts 223°
2026-05-07 20:56 -43.09106 170.01491 33800 ft 477 kts 224°
2026-05-07 20:56 -43.14502 169.96171 33797 ft 477 kts 223°
2026-05-07 20:57 -43.19887 169.90849 33804 ft 477 kts 224°
2026-05-07 20:57 -43.25272 169.85514 33805 ft 477 kts 224°
2026-05-07 20:58 -43.30657 169.80180 33797 ft 478 kts 224°
2026-05-07 20:58 -43.36042 169.74829 33801 ft 478 kts 224°
2026-05-07 20:59 -43.41426 169.69467 33799 ft 478 kts 224°
2026-05-07 20:59 -43.46810 169.64095 33797 ft 478 kts 224°
2026-05-07 21:00 -43.52187 169.58696 33801 ft 479 kts 224°
2026-05-07 21:00 -43.57576 169.53291 33802 ft 478 kts 224°
2026-05-07 21:01 -43.62954 169.47891 33791 ft 478 kts 225°
2026-05-07 21:01 -43.68295 169.42517 33784 ft 479 kts 224°
2026-05-07 21:02 -43.73672 169.37099 33790 ft 478 kts 224°
2026-05-07 21:02 -43.79041 169.31662 33790 ft 477 kts 224°
2026-05-07 21:03 -43.84400 169.26228 33779 ft 477 kts 224°
2026-05-07 21:03 -43.89754 169.20769 33783 ft 478 kts 224°
2026-05-07 21:04 -43.95115 169.15307 33781 ft 478 kts 224°
2026-05-07 21:04 -44.00481 169.09840 33777 ft 478 kts 224°
2026-05-07 21:05 -44.05835 169.04370 33775 ft 478 kts 224°
2026-05-07 21:05 -44.11187 168.98878 33768 ft 478 kts 224°
2026-05-07 21:06 -44.16535 168.93370 33762 ft 479 kts 224°
2026-05-07 21:06 -44.21822 168.87902 33786 ft 474 kts 224°
2026-05-07 21:07 -44.27127 168.82414 32788 ft 480 kts 224°
2026-05-07 21:07 -44.29838 168.79589 31431 ft 492 kts 224°
2026-05-07 21:07 -44.32604 168.76704 30257 ft 499 kts 224°
2026-05-07 21:07 -44.35402 168.73792 29041 ft 503 kts 224°
2026-05-07 21:08 -44.38214 168.70869 27789 ft 505 kts 224°
2026-05-07 21:08 -44.41036 168.67942 26792 ft 502 kts 224°
2026-05-07 21:08 -44.43824 168.65053 25892 ft 498 kts 224°
2026-05-07 21:08 -44.46586 168.62186 25033 ft 491 kts 224°
2026-05-07 21:09 -44.49306 168.59353 24292 ft 485 kts 223°
2026-05-07 21:09 -44.51995 168.56544 23605 ft 478 kts 223°
2026-05-07 21:09 -44.54645 168.53769 22838 ft 472 kts 223°
2026-05-07 21:09 -44.57253 168.51026 22274 ft 462 kts 223°
2026-05-07 21:10 -44.59777 168.48376 22131 ft 444 kts 223°
2026-05-07 21:10 -44.62349 168.46132 21999 ft 429 kts 207°
2026-05-07 21:10 -44.65197 168.45213 21860 ft 414 kts 185°
2026-05-07 21:10 -44.67998 168.45687 21478 ft 403 kts 163°
2026-05-07 21:11 -44.70456 168.47453 20827 ft 395 kts 141°
2026-05-07 21:11 -44.72609 168.49827 20067 ft 392 kts 140°
2026-05-07 21:11 -44.77138 168.53913 18710 ft 385 kts 161°
2026-05-07 21:12 -44.79720 168.54747 18057 ft 378 kts 178°
2026-05-07 21:12 -44.82280 168.54678 17290 ft 369 kts 193°
2026-05-07 21:12 -44.84726 168.53793 16570 ft 358 kts 205°
2026-05-07 21:12 -44.87070 168.52662 15870 ft 353 kts 204°
2026-05-07 21:13 -44.89379 168.51568 15285 ft 345 kts 204°
2026-05-07 21:13 -44.91635 168.50514 14814 ft 340 kts 204°
2026-05-07 21:13 -44.93831 168.49309 14335 ft 334 kts 215°
2026-05-07 21:13 -44.95710 168.47487 13891 ft 322 kts 230°
2026-05-07 21:14 -44.97176 168.45175 13501 ft 311 kts 242°
2026-05-07 21:14 -44.98233 168.42548 13076 ft 304 kts 251°
2026-05-07 21:14 -44.99152 168.39905 12636 ft 304 kts 251°
2026-05-07 21:14 -45.00088 168.37239 12261 ft 302 kts 251°
2026-05-07 21:15 -45.01025 168.34573 11854 ft 300 kts 251°
2026-05-07 21:15 -45.01954 168.31927 11393 ft 302 kts 251°
2026-05-07 21:15 -45.03051 168.29376 11080 ft 308 kts 238°
2026-05-07 21:15 -45.04618 168.27239 10786 ft 317 kts 221°
2026-05-07 21:16 -45.06559 168.25730 10468 ft 322 kts 205°
2026-05-07 21:16 -45.08761 168.25002 10105 ft 329 kts 187°
2026-05-07 21:16 -45.11056 168.25178 9757 ft 332 kts 169°
2026-05-07 21:16 -45.13228 168.26243 9393 ft 330 kts 149°
2026-05-07 21:17 -45.14978 168.28222 9031 ft 323 kts 127°
2026-05-07 21:17 -45.16099 168.30895 8700 ft 311 kts 104°
2026-05-07 21:17 -45.16491 168.33821 8370 ft 297 kts 84°
2026-05-07 21:17 -45.16178 168.36651 8113 ft 286 kts 65°
2026-05-07 21:18 -45.15352 168.39151 7745 ft 279 kts 57°
2026-05-07 21:18 -45.14442 168.41580 7308 ft 278 kts 57°
2026-05-07 21:18 -45.13624 168.43763 6815 ft 275 kts 58°
2026-05-07 21:18 -45.12910 168.45665 6346 ft 273 kts 59°
2026-05-07 21:19 -45.12029 168.48012 5970 ft 262 kts 60°
2026-05-07 21:19 -45.11207 168.50213 5738 ft 246 kts 60°
2026-05-07 21:19 -45.10420 168.52311 5191 ft 236 kts 60°
2026-05-07 21:19 -45.09658 168.54327 4572 ft 227 kts 60°
2026-05-07 21:20 -45.08924 168.56264 3955 ft 219 kts 61°
2026-05-07 21:20 -45.08221 168.58123 3454 ft 206 kts 61°
2026-05-07 21:20 -45.07577 168.59832 3277 ft 193 kts 61°
2026-05-07 21:20 -45.06956 168.61479 3222 ft 181 kts 61°
2026-05-07 21:21 -45.06402 168.62953 3144 ft 155 kts 61°
2026-05-07 21:21 -45.05923 168.64230 2870 ft 141 kts 60°
2026-05-07 21:21 -45.05463 168.65453 2650 ft 141 kts 61°
2026-05-07 21:21 -45.05002 168.66680 2440 ft 141 kts 61°
2026-05-07 21:22 -45.04456 168.67811 2249 ft 142 kts 48°
2026-05-07 21:22 -45.03716 168.68737 2031 ft 142 kts 35°
2026-05-07 21:22 -45.02996 168.69672 1817 ft 140 kts 50°
2026-05-07 21:22 -45.02491 168.70849 1631 ft 140 kts 65°
2026-05-07 21:23 -45.02233 168.72179 1431 ft 139 kts 74°
2026-05-07 21:23 -45.02011 168.73507 1217 ft 139 kts 74°
2026-05-07 21:23 -45.01819 168.74725 1167 ft 95 kts 77°
2026-05-07 21:23 -45.01727 168.75307 1167 ft 48 kts 77°
2026-05-07 21:24 -45.01675 168.75647 1169 ft 19 kts 78°
2026-05-07 21:24 -45.01663 168.75765 1168 ft 13 kts 99°
2026-05-07 21:24 -45.01651 168.75829 1163 ft 2 kts
2026-05-07 21:24 -45.01649 168.75803 1164 ft 5 kts 254°
2026-05-07 21:25 -45.01664 168.75708 1167 ft 13 kts 257°
2026-05-07 21:25 -45.01689 168.75554 1169 ft 18 kts 258°
2026-05-07 21:25 -45.01718 168.75367 1167 ft 21 kts 258°
2026-05-07 21:25 -45.01751 168.75148 1164 ft 24 kts 255°
2026-05-07 21:26 -45.01790 168.74908 1167 ft 26 kts 257°
2026-05-07 21:26 -45.01831 168.74647 1167 ft 28 kts 258°
2026-05-07 21:26 -45.01875 168.74365 1169 ft 30 kts 258°
2026-05-07 21:26 -45.01915 168.74119 1166 ft 18 kts 255°
2026-05-07 21:27 -45.02009 168.74017 1164 ft 19 kts 202°
2026-05-07 21:27 -45.02075 168.74023 1163 ft 6 kts 126°
2026-05-07 21:27 -45.02105 168.74026 1163 ft 1 kts 210°
2026-05-07 21:27 -45.02117 168.74017 1163 ft 2 kts 207°
2026-05-07 21:28 -45.02124 168.74013 1164 ft 1 kts 206°
2026-05-07 21:28 -45.02126 168.74011 1164 ft 0 kts 206°